カタログに戻る

COSMOS 1867 COOLANT

運用中LEO
NORAD 39659·DEBRIS·🇷🇺 Russia

打ち上げ Jul 10, 1987 から Baikonur Cosmodrome

Loading…

次のパス (今後24時間)

TLE

最新Source: Space-Track

元期: Sep 14, 2026, 14:22 UTC

1 39659U 87060W   26257.59874431  .00000131  00000-0  82658-4 0  9994
2 39659  65.0086 115.1403 0018392 283.4433  76.4602 14.34155303649513

AllMySatでCOSMOS 1867 COOLANTをリアルタイム追跡

Download on the App Store